星链-11150 (STARLINK-11150)

导读 | 豆包AI

STARLINK-11150是美国SpaceX公司于2024年8月10日发射的星链低轨互联网卫星,归属Starlink V1.0平台,属于第二代星链组网卫星之一。 该卫星运行在近地轨道,轨道倾角约53度,近地点约475公里,远地点约476公里,轨道周期约94分钟。作为星链全球卫星互联网项目组成部分,它为全球用户,尤其偏远地区,提供高速低延迟网络服务,同时可支持军事、航空等领域通信需求,星链项目通过批量部署持续缩小全球数字鸿沟。卫星退役后会主动降轨在大气层中销毁,降低空间碎片影响。

基本信息
目录编号:
60406
目录名称:
STARLINK-11150
国际标识:
2024-141J
轨道中心:
EARTH
卫星名称:
星链-11150 (STARLINK-11150)
卫星全名:
星链-11150 (STARLINK-11150)
卫星状态:
在轨 (已飞行653 天)
发射日期:
2024-08-10 UTC
国别 :
美国 (US)
星等 :
--
轨道信息
数据来源 国际轨道数据 AOE轨道数据
星历时间 2026-05-24T10:16:45+0800
1天前
查看轨道信息
2026-05-23T01:00:00+0800
2天前
查看轨道信息
半长轴 6737.892km 6737.81km
偏心率 0.0000972 0.0001447
轨道倾角 53.158° 53.156°
近地点辐角 90.714° 105.822°
升交点赤经 74.726° 81.557°
平近点角 269.399° 334.033°
近地点 359.1km 358.698km
远地点 360.41km 360.648km
周期 91.737分钟 91.736分钟
每日圈数 15.697004 15.697291
详细信息
卫星平台:
Starlink v2.0 mini
运营商:
太空探索技术公司
运营商所在国:
美国
制造商(研发单位):
太空探索技术公司
制造商所在国:
美国
使用方式:
暂无
卫星简介
星链(Starlink)计划是由太空探索技术公司(SpaceX)提出的一个巨型低轨卫星互联网星座项目,计划在2019年至2024年间在太空搭建由约1.2万颗卫星组成的“星链”网络,其中1584颗将部署在地球上空550千米处的近地轨道,并从2020年开始工作。该卫星仍在工作。
2D轨道图
3D轨道图
轨道高度分析图
轨道倾角分析图
轨道综合分析图
查看轨道综合分析图